| time (UTC) | temp F | wind direction | speed MPH | gust MPH | rain 1hr in | rain 24hr in | rain mn in | humidity % | barometer mb |
| 20260508123522 | 56 | 161 | 0.0 | 0.0 | 0.00 | 0.01 | 0.00 | 95 | 1014.5 |
| 20260508123040 | 56 | 161 | 0.0 | 0.0 | 0.00 | 0.01 | 0.00 | 95 | 1014.5 |
| 20260508122542 | 56 | 161 | 0.0 | 0.0 | 0.00 | 0.01 | 0.00 | 95 | 1014.1 |
| 20260508122031 | 55 | 161 | 0.0 | 0.0 | 0.00 | 0.01 | 0.00 | 95 | 1014.1 |
| 20260508121024 | 55 | 161 | 0.0 | 0.0 | 0.00 | 0.01 | 0.00 | 95 | 1013.9 |
| 20260508120520 | 55 | 161 | 0.0 | 0.0 | 0.00 | 0.01 | 0.00 | 95 | 1013.9 |
| 20260508120016 | 55 | 161 | 0.0 | 0.0 | 0.00 | 0.01 | 0.00 | 95 | 1013.9 |
| 20260508115542 | 55 | 161 | 0.0 | 0.0 | 0.00 | 0.01 | 0.00 | 95 | 1013.8 |
| 20260508115021 | 55 | 161 | 0.0 | 0.0 | 0.00 | 0.01 | 0.00 | 95 | 1013.8 |
| 20260508114518 | 55 | 161 | 0.0 | 0.0 | 0.00 | 0.01 | 0.00 | 95 | 1013.8 |
| 20260508113521 | 55 | 161 | 0.0 | 0.0 | 0.00 | 0.01 | 0.00 | 95 | 1013.4 |
| 20260508113025 | 55 | 161 | 0.0 | 0.0 | 0.00 | 0.01 | 0.00 | 95 | 1013.4 |
| 20260508112554 | 55 | 161 | 0.0 | 0.0 | 0.00 | 0.01 | 0.00 | 95 | 1013.3 |
| 20260508112024 | 55 | 161 | 0.0 | 1.0 | 0.00 | 0.01 | 0.00 | 95 | 1013.3 |
| 20260508111528 | 55 | 161 | 0.0 | 1.0 | 0.00 | 0.01 | 0.00 | 94 | 1013.3 |
| 20260508111026 | 55 | 161 | 0.0 | 0.0 | 0.00 | 0.01 | 0.00 | 95 | 1013.0 |
| 20260508110541 | 55 | 161 | 0.0 | 0.0 | 0.00 | 0.01 | 0.00 | 95 | 1013.0 |
| 20260508110021 | 55 | 161 | 0.0 | 0.0 | 0.00 | 0.01 | 0.00 | 95 | 1013.0 |
| 20260508105519 | 55 | 161 | 0.0 | 0.0 | 0.00 | 0.01 | 0.00 | 95 | 1012.9 |
| 20260508104529 | 55 | 161 | 0.0 | 0.0 | 0.00 | 0.01 | 0.00 | 94 | 1012.9 |
| 20260508104018 | 55 | 161 | 0.0 | 0.0 | 0.00 | 0.01 | 0.00 | 94 | 1012.9 |
| 20260508103522 | 55 | 161 | 0.0 | 0.0 | 0.00 | 0.01 | 0.00 | 95 | 1012.9 |
| 20260508103039 | 55 | 161 | 0.0 | 0.0 | 0.00 | 0.01 | 0.00 | 95 | 1012.9 |
| 20260508102539 | 55 | 161 | 0.0 | 0.0 | 0.00 | 0.01 | 0.00 | 95 | 1012.8 |
| 20260508102041 | 55 | 161 | 0.0 | 0.0 | 0.00 | 0.01 | 0.00 | 95 | 1012.8 |
| 20260508101530 | 55 | 161 | 0.0 | 0.0 | 0.00 | 0.01 | 0.00 | 95 | 1012.8 |
| 20260508101023 | 55 | 161 | 0.0 | 0.0 | 0.00 | 0.01 | 0.00 | 95 | 1012.8 |
| 20260508100522 | 55 | 161 | 0.0 | 0.0 | 0.00 | 0.01 | 0.00 | 95 | 1012.8 |
| 20260508100033 | 55 | 161 | 0.0 | 0.0 | 0.00 | 0.02 | 0.00 | 95 | 1012.8 |
| 20260508095523 | 55 | 161 | 0.0 | 0.0 | 0.00 | 0.02 | 0.00 | 95 | 1012.4 |
| 20260508095023 | 55 | 161 | 0.0 | 0.0 | 0.00 | 0.02 | 0.00 | 94 | 1012.4 |
| 20260508094554 | 55 | 161 | 0.0 | 0.0 | 0.00 | 0.02 | 0.00 | 94 | 1012.4 |
| 20260508094025 | 55 | 161 | 0.0 | 0.0 | 0.00 | 0.02 | 0.00 | 94 | 1011.9 |
| 20260508093534 | 55 | 161 | 0.0 | 0.0 | 0.00 | 0.02 | 0.00 | 94 | 1011.9 |
| 20260508093019 | 55 | 161 | 0.0 | 0.0 | 0.00 | 0.02 | 0.00 | 94 | 1011.9 |
| 20260508092029 | 55 | 161 | 0.0 | 0.0 | 0.00 | 0.02 | 0.00 | 94 | 1011.4 |
| 20260508091536 | 56 | 161 | 0.0 | 0.0 | 0.00 | 0.02 | 0.00 | 94 | 1011.4 |
| 20260508091040 | 56 | 161 | 0.0 | 0.0 | 0.00 | 0.02 | 0.00 | 94 | 1011.4 |
| 20260508090531 | 56 | 161 | 0.0 | 0.0 | 0.00 | 0.02 | 0.00 | 94 | 1011.4 |
| 20260508090037 | 56 | 161 | 0.0 | 0.0 | 0.00 | 0.12 | 0.00 | 94 | 1011.4 |
| 20260508085521 | 56 | 161 | 0.0 | 0.0 | 0.00 | 0.12 | 0.00 | 94 | 1011.4 |
| 20260508085033 | 56 | 161 | 0.0 | 0.0 | 0.00 | 0.12 | 0.00 | 94 | 1011.4 |
| 20260508084521 | 56 | 161 | 0.0 | 0.0 | 0.00 | 0.12 | 0.00 | 94 | 1011.4 |
| 20260508084057 | 56 | 161 | 0.0 | 0.0 | 0.00 | 0.12 | 0.00 | 94 | 1011.3 |
| 20260508083535 | 56 | 161 | 0.0 | 0.0 | 0.00 | 0.12 | 0.00 | 94 | 1011.3 |
| 20260508083046 | 56 | 161 | 0.0 | 0.0 | 0.00 | 0.12 | 0.00 | 94 | 1011.3 |
| 20260508082530 | 56 | 161 | 0.0 | 0.0 | 0.00 | 0.12 | 0.00 | 94 | 1011.2 |
| 20260508082031 | 56 | 161 | 0.0 | 0.0 | 0.00 | 0.12 | 0.00 | 94 | 1011.2 |
| 20260508081547 | 56 | 161 | 0.0 | 0.0 | 0.00 | 0.12 | 0.00 | 94 | 1011.2 |
| 20260508081033 | 56 | 161 | 0.0 | 0.0 | 0.00 | 0.12 | 0.00 | 94 | 1011.3 |
| 20260508080533 | 57 | 161 | 0.0 | 0.0 | 0.00 | 0.12 | 0.00 | 94 | 1011.3 |
| 20260508080041 | 57 | 161 | 0.0 | 0.0 | 0.00 | 0.17 | 0.00 | 94 | 1011.3 |
| 20260508075521 | 57 | 161 | 0.0 | 0.0 | 0.00 | 0.17 | 0.00 | 94 | 1011.6 |
| 20260508075102 | 57 | 161 | 0.0 | 0.0 | 0.00 | 0.17 | 0.00 | 94 | 1011.6 |
| 20260508074546 | 57 | 161 | 0.0 | 0.0 | 0.00 | 0.17 | 0.00 | 94 | 1011.6 |
| 20260508074021 | 57 | 161 | 0.0 | 0.0 | 0.00 | 0.17 | 0.00 | 94 | 1011.8 |
| 20260508073525 | 57 | 161 | 0.0 | 0.0 | 0.00 | 0.17 | 0.00 | 94 | 1011.8 |
| 20260508073030 | 57 | 161 | 0.0 | 0.0 | 0.00 | 0.17 | 0.00 | 94 | 1011.8 |
| 20260508072540 | 57 | 161 | 0.0 | 0.0 | 0.00 | 0.17 | 0.00 | 93 | 1011.9 |
| 20260508072026 | 57 | 161 | 0.0 | 0.0 | 0.00 | 0.17 | 0.00 | 94 | 1011.9 |
| 20260508071531 | 57 | 161 | 0.0 | 0.0 | 0.00 | 0.17 | 0.00 | 94 | 1011.9 |
| 20260508071039 | 58 | 161 | 0.0 | 0.0 | 0.00 | 0.17 | 0.00 | 94 | 1011.8 |
| 20260508070528 | 58 | 161 | 0.0 | 0.0 | 0.00 | 0.17 | 0.00 | 94 | 1011.8 |
| 20260508070104 | 58 | 161 | 0.0 | 0.0 | 0.00 | 0.18 | 0.00 | 94 | 1011.8 |
| 20260508065545 | 58 | 161 | 0.0 | 0.0 | 0.00 | 0.18 | 0.00 | 94 | 1011.8 |
| 20260508065042 | 58 | 161 | 0.0 | 0.0 | 0.00 | 0.18 | 0.00 | 93 | 1011.8 |
| 20260508064532 | 58 | 161 | 0.0 | 0.0 | 0.00 | 0.18 | 0.00 | 93 | 1011.8 |
| 20260508064035 | 58 | 161 | 0.0 | 0.0 | 0.00 | 0.18 | 0.00 | 93 | 1011.9 |
| 20260508063523 | 58 | 161 | 0.0 | 0.0 | 0.00 | 0.18 | 0.00 | 93 | 1011.9 |
| 20260508063038 | 58 | 161 | 0.0 | 0.0 | 0.00 | 0.18 | 0.00 | 93 | 1011.9 |
| 20260508062540 | 58 | 161 | 0.0 | 0.0 | 0.00 | 0.18 | 0.00 | 93 | 1011.9 |
| 20260508062039 | 58 | 161 | 0.0 | 0.0 | 0.00 | 0.18 | 0.00 | 93 | 1011.9 |
| 20260508061525 | 58 | 161 | 0.0 | 0.0 | 0.00 | 0.18 | 0.00 | 93 | 1011.9 |
| 20260508061028 | 58 | 161 | 0.0 | 0.0 | 0.00 | 0.18 | 0.00 | 93 | 1012.0 |
| 20260508060517 | 58 | 161 | 0.0 | 0.0 | 0.00 | 0.18 | 0.00 | 92 | 1012.0 |
| 20260508060030 | 58 | 161 | 0.0 | 0.0 | 0.00 | 0.21 | 0.00 | 92 | 1012.0 |
| 20260508055524 | 58 | 161 | 0.0 | 0.0 | 0.00 | 0.21 | 0.00 | 92 | 1012.3 |
| 20260508055025 | 58 | 161 | 0.0 | 0.0 | 0.00 | 0.21 | 0.00 | 92 | 1012.3 |
| 20260508054524 | 58 | 161 | 0.0 | 0.0 | 0.00 | 0.21 | 0.00 | 92 | 1012.3 |
| 20260508054038 | 58 | 161 | 0.0 | 0.0 | 0.00 | 0.21 | 0.00 | 92 | 1012.5 |
| 20260508053529 | 58 | 161 | 0.0 | 0.0 | 0.00 | 0.21 | 0.00 | 92 | 1012.5 |
| 20260508053103 | 58 | 161 | 0.0 | 0.0 | 0.00 | 0.21 | 0.00 | 92 | 1012.5 |
| 20260508052557 | 58 | 161 | 0.0 | 0.0 | 0.00 | 0.21 | 0.00 | 92 | 1012.4 |
| 20260508052027 | 58 | 161 | 0.0 | 0.0 | 0.00 | 0.21 | 0.00 | 91 | 1012.4 |
| 20260508051532 | 59 | 161 | 0.0 | 0.0 | 0.00 | 0.21 | 0.00 | 91 | 1012.4 |
| 20260508051039 | 59 | 161 | 0.0 | 0.0 | 0.00 | 0.21 | 0.00 | 91 | 1012.7 |
| 20260508050532 | 59 | 161 | 0.0 | 0.0 | 0.00 | 0.21 | 0.00 | 91 | 1012.7 |
| 20260508050040 | 59 | 161 | 0.0 | 0.0 | 0.00 | 0.24 | 0.21 | 91 | 1012.7 |
| 20260508045528 | 59 | 161 | 0.0 | 0.0 | 0.00 | 0.24 | 0.21 | 91 | 1012.5 |
| 20260508045043 | 59 | 161 | 0.0 | 0.0 | 0.00 | 0.24 | 0.21 | 91 | 1012.5 |
| 20260508044526 | 59 | 161 | 0.0 | 1.0 | 0.00 | 0.24 | 0.21 | 91 | 1012.5 |
| 20260508044025 | 59 | 161 | 0.0 | 1.0 | 0.00 | 0.24 | 0.21 | 91 | 1012.6 |
| 20260508043538 | 59 | 161 | 0.0 | 0.0 | 0.00 | 0.24 | 0.21 | 91 | 1012.6 |
| 20260508043031 | 59 | 161 | 0.0 | 0.0 | 0.00 | 0.24 | 0.21 | 90 | 1012.6 |
| 20260508042518 | 59 | 161 | 0.0 | 0.0 | 0.00 | 0.24 | 0.21 | 90 | 1012.4 |
| 20260508042025 | 59 | 161 | 0.0 | 0.0 | 0.00 | 0.24 | 0.21 | 90 | 1012.4 |
| 20260508041603 | 59 | 161 | 0.0 | 0.0 | 0.00 | 0.24 | 0.21 | 90 | 1012.4 |
| 20260508041054 | 59 | 161 | 0.0 | 0.0 | 0.00 | 0.24 | 0.21 | 90 | 1012.5 |
| 20260508040538 | 60 | 161 | 0.0 | 0.0 | 0.00 | 0.24 | 0.21 | 90 | 1012.5 |
| 20260508040023 | 60 | 161 | 0.0 | 0.0 | 0.00 | 0.36 | 0.21 | 90 | 1012.5 |
| 20260508035533 | 60 | 161 | 0.0 | 0.0 | 0.00 | 0.36 | 0.21 | 90 | 1012.6 |
| 20260508035035 | 60 | 161 | 0.0 | 0.0 | 0.00 | 0.36 | 0.21 | 90 | 1012.6 |
| 20260508034034 | 60 | 161 | 0.0 | 0.0 | 0.00 | 0.36 | 0.21 | 90 | 1012.4 |
| 20260508033519 | 60 | 161 | 0.0 | 0.0 | 0.00 | 0.36 | 0.21 | 90 | 1012.4 |
| 20260508033022 | 60 | 161 | 0.0 | 0.0 | 0.00 | 0.36 | 0.21 | 89 | 1012.4 |
| 20260508032538 | 60 | 161 | 0.0 | 0.0 | 0.00 | 0.36 | 0.21 | 90 | 1012.3 |
| 20260508032042 | 60 | 161 | 0.0 | 0.0 | 0.00 | 0.36 | 0.21 | 89 | 1012.3 |
| 20260508031556 | 61 | 161 | 0.0 | 0.0 | 0.00 | 0.36 | 0.21 | 90 | 1012.3 |
| 20260508030536 | 61 | 161 | 0.0 | 0.0 | 0.00 | 0.36 | 0.21 | 89 | 1012.3 |
| 20260508030039 | 61 | 161 | 0.0 | 0.0 | 0.00 | 0.55 | 0.21 | 89 | 1012.3 |
| 20260508025543 | 61 | 161 | 0.0 | 0.0 | 0.00 | 0.55 | 0.21 | 89 | 1012.3 |
| 20260508025028 | 61 | 161 | 0.0 | 0.0 | 0.00 | 0.55 | 0.21 | 89 | 1012.3 |
| 20260508024538 | 61 | 161 | 0.0 | 0.0 | 0.00 | 0.55 | 0.21 | 89 | 1012.3 |
| 20260508024046 | 61 | 161 | 0.0 | 0.0 | 0.00 | 0.55 | 0.21 | 89 | 1011.9 |
| 20260508023543 | 62 | 161 | 0.0 | 0.0 | 0.00 | 0.55 | 0.21 | 89 | 1011.9 |
| 20260508023021 | 62 | 161 | 0.0 | 0.0 | 0.00 | 0.55 | 0.21 | 89 | 1011.9 |
| 20260508022529 | 62 | 161 | 0.0 | 0.0 | 0.00 | 0.55 | 0.21 | 89 | 1011.9 |
| 20260508022030 | 62 | 161 | 0.0 | 0.0 | 0.00 | 0.55 | 0.21 | 89 | 1011.9 |
| 20260508021522 | 62 | 161 | 0.0 | 0.0 | 0.00 | 0.55 | 0.21 | 89 | 1011.9 |
| 20260508021026 | 62 | 161 | 0.0 | 0.0 | 0.00 | 0.55 | 0.21 | 88 | 1011.9 |
| 20260508020602 | 62 | 161 | 0.0 | 0.0 | 0.00 | 0.55 | 0.21 | 88 | 1011.9 |
| 20260508020024 | 62 | 161 | 0.0 | 0.0 | 0.00 | 0.55 | 0.21 | 87 | 1011.9 |
| 20260508015534 | 63 | 161 | 0.0 | 0.0 | 0.00 | 0.55 | 0.21 | 87 | 1011.8 |
| 20260508015019 | 63 | 161 | 0.0 | 0.0 | 0.00 | 0.55 | 0.21 | 87 | 1011.8 |
| 20260508014532 | 63 | 161 | 0.0 | 0.0 | 0.00 | 0.55 | 0.21 | 86 | 1011.8 |
| 20260508014022 | 63 | 161 | 0.0 | 0.0 | 0.00 | 0.55 | 0.21 | 86 | 1011.8 |
| 20260508013526 | 63 | 161 | 0.0 | 0.0 | 0.00 | 0.55 | 0.21 | 85 | 1011.8 |
| 20260508013036 | 64 | 161 | 0.0 | 0.0 | 0.00 | 0.55 | 0.21 | 85 | 1011.8 |
| 20260508012531 | 64 | 161 | 0.0 | 0.0 | 0.00 | 0.55 | 0.21 | 85 | 1011.8 |
| 20260508012018 | 64 | 161 | 0.0 | 0.0 | 0.00 | 0.55 | 0.21 | 84 | 1011.8 |
| 20260508011552 | 64 | 161 | 0.0 | 0.0 | 0.00 | 0.55 | 0.21 | 84 | 1011.8 |
| 20260508011043 | 65 | 161 | 0.0 | 0.0 | 0.00 | 0.55 | 0.21 | 84 | 1011.4 |
| 20260508010529 | 65 | 161 | 0.0 | 0.0 | 0.00 | 0.55 | 0.21 | 84 | 1011.4 |
| 20260508010017 | 65 | 161 | 0.0 | 0.0 | 0.00 | 0.55 | 0.21 | 83 | 1011.4 |
| 20260508005528 | 66 | 161 | 0.0 | 0.0 | 0.00 | 0.55 | 0.21 | 83 | 1011.3 |
| 20260508005021 | 66 | 161 | 0.0 | 0.0 | 0.00 | 0.55 | 0.21 | 83 | 1011.3 |
| 20260508004530 | 66 | 161 | 0.0 | 0.0 | 0.00 | 0.55 | 0.21 | 83 | 1011.3 |
| 20260508004041 | 66 | 161 | 0.0 | 0.0 | 0.00 | 0.55 | 0.21 | 83 | 1011.3 |
| 20260508003531 | 67 | 161 | 0.0 | 0.0 | 0.00 | 0.55 | 0.21 | 83 | 1011.3 |
| 20260508003034 | 67 | 161 | 0.0 | 0.0 | 0.00 | 0.55 | 0.21 | 83 | 1011.3 |
| 20260508002522 | 67 | 161 | 0.0 | 0.0 | 0.00 | 0.55 | 0.21 | 82 | 1011.2 |
| 20260508002037 | 67 | 161 | 0.0 | 0.0 | 0.00 | 0.55 | 0.21 | 83 | 1011.2 |
| 20260508001531 | 67 | 161 | 0.0 | 0.0 | 0.00 | 0.55 | 0.21 | 82 | 1011.2 |
| 20260508001030 | 67 | 161 | 0.0 | 1.0 | 0.00 | 0.55 | 0.21 | 82 | 1010.9 |
| 20260508000531 | 67 | 161 | 0.0 | 1.0 | 0.00 | 0.55 | 0.21 | 83 | 1010.9 |
| 20260508000014 | 68 | 161 | 0.0 | 0.0 | 0.00 | 0.55 | 0.21 | 83 | 1010.9 |
| 20260507235525 | 68 | 161 | 0.0 | 0.0 | 0.00 | 0.55 | 0.21 | 85 | 1010.8 |
| 20260507235102 | 68 | 161 | 0.0 | 0.0 | 0.00 | 0.55 | 0.21 | 84 | 1010.8 |
| 20260507234528 | 68 | 161 | 0.0 | 2.0 | 0.00 | 0.55 | 0.21 | 85 | 1010.8 |
| 20260507234100 | 68 | 161 | 0.0 | 2.0 | 0.00 | 0.55 | 0.21 | 84 | 1010.7 |
| 20260507233544 | 68 | 161 | 0.0 | 1.0 | 0.00 | 0.55 | 0.21 | 84 | 1010.7 |
| 20260507233029 | 68 | 161 | 0.0 | 1.0 | 0.00 | 0.55 | 0.21 | 85 | 1010.7 |
| 20260507232542 | 68 | 161 | 0.0 | 0.0 | 0.00 | 0.55 | 0.21 | 85 | 1010.5 |
| 20260507232046 | 68 | 161 | 0.0 | 1.0 | 0.00 | 0.55 | 0.21 | 85 | 1010.5 |
| 20260507231528 | 68 | 161 | 0.0 | 1.0 | 0.00 | 0.55 | 0.21 | 85 | 1010.5 |
| 20260507231016 | 68 | 161 | 0.0 | 1.0 | 0.00 | 0.55 | 0.21 | 85 | 1010.4 |
| 20260507230525 | 68 | 161 | 0.0 | 1.0 | 0.00 | 0.55 | 0.21 | 85 | 1010.4 |
| 20260507230029 | 69 | 161 | 0.0 | 0.0 | 0.00 | 0.55 | 0.21 | 85 | 1010.4 |
| 20260507225523 | 69 | 161 | 0.0 | 1.0 | 0.00 | 0.55 | 0.21 | 85 | 1010.3 |
| 20260507225057 | 69 | 161 | 0.0 | 1.0 | 0.00 | 0.55 | 0.21 | 85 | 1010.3 |
| 20260507224544 | 69 | 161 | 0.0 | 1.0 | 0.00 | 0.55 | 0.21 | 84 | 1010.3 |
| 20260507224043 | 69 | 161 | 0.0 | 1.0 | 0.00 | 0.55 | 0.21 | 84 | 1010.3 |
| 20260507223528 | 69 | 161 | 0.0 | 1.0 | 0.00 | 0.55 | 0.21 | 84 | 1010.3 |
| 20260507223025 | 69 | 161 | 0.0 | 1.0 | 0.00 | 0.55 | 0.21 | 83 | 1010.3 |
| 20260507222518 | 69 | 161 | 0.0 | 1.0 | 0.00 | 0.55 | 0.21 | 84 | 1010.3 |
| 20260507222030 | 70 | 161 | 0.0 | 1.0 | 0.00 | 0.55 | 0.21 | 83 | 1010.3 |
| 20260507221540 | 70 | 161 | 0.0 | 1.0 | 0.00 | 0.55 | 0.21 | 82 | 1010.3 |
| 20260507221045 | 70 | 161 | 0.0 | 0.0 | 0.00 | 0.55 | 0.21 | 83 | 1010.3 |
| 20260507220021 | 70 | 161 | 0.0 | 1.0 | 0.00 | 0.57 | 0.21 | 82 | 1010.3 |
| 20260507215520 | 70 | 161 | 0.0 | 3.0 | 0.00 | 0.57 | 0.21 | 81 | 1010.3 |
| 20260507215037 | 70 | 161 | 0.0 | 4.0 | 0.00 | 0.57 | 0.21 | 80 | 1010.3 |
| 20260507214534 | 70 | 161 | 1.0 | 4.0 | 0.00 | 0.57 | 0.21 | 81 | 1010.3 |
| 20260507214035 | 70 | 161 | 0.0 | 3.0 | 0.00 | 0.57 | 0.21 | 83 | 1010.2 |
| 20260507213521 | 70 | 160 | 1.0 | 3.0 | 0.00 | 0.57 | 0.21 | 82 | 1010.2 |
| 20260507212535 | 70 | 169 | 0.0 | 2.0 | 0.00 | 0.57 | 0.21 | 83 | 1010.2 |
| 20260507212038 | 70 | 169 | 0.0 | 2.0 | 0.00 | 0.57 | 0.21 | 83 | 1010.2 |
| 20260507211548 | 70 | 169 | 0.0 | 1.0 | 0.00 | 0.57 | 0.21 | 81 | 1010.2 |
| 20260507211044 | 70 | 169 | 0.0 | 2.0 | 0.00 | 0.57 | 0.21 | 81 | 1009.8 |
| 20260507210532 | 70 | 169 | 0.0 | 2.0 | 0.00 | 0.57 | 0.21 | 81 | 1009.8 |
| 20260507210031 | 71 | 169 | 0.0 | 2.0 | 0.00 | 0.72 | 0.21 | 81 | 1009.8 |
| 20260507205528 | 71 | 169 | 0.0 | 2.0 | 0.00 | 0.72 | 0.21 | 82 | 1010.2 |
| 20260507205017 | 70 | 169 | 0.0 | 3.0 | 0.00 | 0.72 | 0.21 | 81 | 1010.2 |
| 20260507204521 | 70 | 169 | 1.0 | 3.0 | 0.00 | 0.72 | 0.21 | 79 | 1010.2 |
| 20260507203541 | 70 | 187 | 1.0 | 2.0 | 0.00 | 0.72 | 0.21 | 81 | 1010.3 |
| 20260507203036 | 70 | 187 | 0.0 | 1.0 | 0.00 | 0.72 | 0.21 | 82 | 1010.3 |
| 20260507202538 | 70 | 187 | 0.0 | 3.0 | 0.00 | 0.72 | 0.21 | 82 | 1010.3 |
| 20260507202020 | 70 | 187 | 1.0 | 3.0 | 0.00 | 0.72 | 0.21 | 81 | 1010.3 |
| 20260507201527 | 70 | 136 | 1.0 | 2.0 | 0.00 | 0.72 | 0.21 | 83 | 1010.3 |
| 20260507201042 | 69 | 136 | 0.0 | 2.0 | 0.00 | 0.72 | 0.21 | 82 | 1010.7 |
| 20260507200023 | 69 | 136 | 1.0 | 3.0 | 0.00 | 0.72 | 0.21 | 81 | 1010.7 |
| 20260507195526 | 69 | 136 | 1.0 | 2.0 | 0.00 | 0.72 | 0.21 | 82 | 1010.7 |
| 20260507195029 | 69 | 136 | 1.0 | 2.0 | 0.00 | 0.72 | 0.21 | 83 | 1010.7 |
| 20260507194529 | 69 | 136 | 0.0 | 2.0 | 0.00 | 0.72 | 0.21 | 84 | 1010.7 |
| 20260507194017 | 69 | 136 | 0.0 | 1.0 | 0.00 | 0.72 | 0.21 | 84 | 1010.7 |
| 20260507193517 | 69 | 136 | 0.0 | 1.0 | 0.00 | 0.72 | 0.21 | 84 | 1010.7 |
| 20260507193032 | 69 | 136 | 1.0 | 2.0 | 0.00 | 0.72 | 0.21 | 82 | 1010.7 |
| 20260507192532 | 69 | 136 | 0.0 | 3.0 | 0.00 | 0.72 | 0.21 | 83 | 1010.7 |
| 20260507192035 | 69 | 136 | 1.0 | 3.0 | 0.00 | 0.72 | 0.21 | 82 | 1010.7 |
| 20260507191518 | 68 | 134 | 1.0 | 4.0 | 0.00 | 0.72 | 0.21 | 84 | 1010.7 |
| 20260507191037 | 68 | 132 | 1.0 | 4.0 | 0.00 | 0.72 | 0.21 | 85 | 1010.7 |
| 20260507190542 | 68 | 146 | 0.0 | 2.0 | 0.00 | 0.72 | 0.21 | 85 | 1010.7 |
| 20260507190022 | 67 | 194 | 0.0 | 2.0 | 0.00 | 0.72 | 0.21 | 85 | 1010.7 |
| 20260507185537 | 67 | 194 | 1.0 | 2.0 | 0.00 | 0.72 | 0.21 | 86 | 1010.8 |
| 20260507185038 | 67 | 150 | 1.0 | 2.0 | 0.00 | 0.72 | 0.21 | 87 | 1010.8 |
| 20260507184520 | 66 | 324 | 0.0 | 2.0 | 0.00 | 0.72 | 0.21 | 89 | 1010.8 |
| 20260507184054 | 66 | 331 | 0.0 | 2.0 | 0.00 | 0.72 | 0.21 | 90 | 1011.3 |
| 20260507183519 | 65 | 149 | 0.0 | 1.0 | 0.00 | 0.72 | 0.21 | 91 | 1011.3 |
| 20260507183032 | 65 | 149 | 0.0 | 1.0 | 0.00 | 0.72 | 0.21 | 90 | 1011.3 |
| 20260507182539 | 65 | 149 | 0.0 | 2.0 | 0.00 | 0.72 | 0.21 | 89 | 1011.4 |
| 20260507182027 | 65 | 149 | 0.0 | 2.0 | 0.00 | 0.72 | 0.21 | 91 | 1011.4 |
| 20260507181558 | 65 | 182 | 0.0 | 2.0 | 0.00 | 0.72 | 0.21 | 91 | 1011.4 |
| 20260507181037 | 65 | 182 | 0.0 | 2.0 | 0.00 | 0.72 | 0.21 | 89 | 1011.4 |
| 20260507180526 | 65 | 182 | 0.0 | 4.0 | 0.00 | 0.72 | 0.21 | 90 | 1011.4 |
| 20260507180025 | 64 | 182 | 2.0 | 4.0 | 0.00 | 0.72 | 0.21 | 90 | 1011.4 |
| 20260507175539 | 64 | 226 | 1.0 | 3.0 | 0.00 | 0.72 | 0.21 | 92 | 1011.7 |
| 20260507175055 | 64 | 227 | 1.0 | 3.0 | 0.00 | 0.72 | 0.21 | 92 | 1011.7 |
| 20260507174526 | 64 | 223 | 0.0 | 2.0 | 0.00 | 0.72 | 0.21 | 93 | 1011.7 |
| 20260507174056 | 64 | 223 | 1.0 | 2.0 | 0.00 | 0.72 | 0.21 | 93 | 1011.7 |
| 20260507173536 | 64 | 223 | 0.0 | 2.0 | 0.00 | 0.72 | 0.21 | 93 | 1011.7 |
| 20260507173020 | 64 | 223 | 0.0 | 2.0 | 0.00 | 0.72 | 0.21 | 94 | 1011.7 |
| 20260507172524 | 63 | 223 | 0.0 | 2.0 | 0.00 | 0.72 | 0.21 | 95 | 1011.9 |
| 20260507172057 | 63 | 223 | 0.0 | 2.0 | 0.00 | 0.72 | 0.21 | 95 | 1011.9 |
| 20260507171027 | 62 | 223 | 1.0 | 2.0 | 0.00 | 0.72 | 0.21 | 95 | 1011.9 |
| 20260507170606 | 62 | 223 | 0.0 | 1.0 | 0.00 | 0.72 | 0.21 | 95 | 1011.9 |
| 20260507170046 | 62 | 223 | 0.0 | 2.0 | 0.00 | 0.72 | 0.21 | 95 | 1011.9 |
| 20260507165532 | 62 | 192 | 0.0 | 1.0 | 0.00 | 0.72 | 0.21 | 96 | 1012.0 |
| 20260507165038 | 62 | 270 | 0.0 | 0.0 | 0.00 | 0.72 | 0.21 | 96 | 1012.0 |
| 20260507164538 | 62 | 270 | 0.0 | 2.0 | 0.00 | 0.72 | 0.21 | 97 | 1012.0 |
| 20260507164026 | 62 | 270 | 0.0 | 2.0 | 0.00 | 0.72 | 0.21 | 96 | 1011.8 |
| 20260507163523 | 61 | 271 | 0.0 | 2.0 | 0.00 | 0.72 | 0.21 | 97 | 1011.8 |
| 20260507163033 | 61 | 279 | 0.0 | 1.0 | 0.00 | 0.72 | 0.21 | 96 | 1011.8 |
| 20260507162538 | 61 | 279 | 0.0 | 0.0 | 0.00 | 0.72 | 0.21 | 97 | 1011.7 |
| 20260507162029 | 61 | 261 | 0.0 | 0.0 | 0.00 | 0.72 | 0.21 | 96 | 1011.7 |
| 20260507161539 | 61 | 261 | 0.0 | 0.0 | 0.00 | 0.72 | 0.21 | 96 | 1011.7 |
| 20260507161042 | 61 | 261 | 0.0 | 0.0 | 0.00 | 0.72 | 0.21 | 96 | 1011.3 |
| 20260507160524 | 61 | 264 | 0.0 | 0.0 | 0.00 | 0.72 | 0.21 | 96 | 1011.3 |
| 20260507160056 | 61 | 264 | 0.0 | 1.0 | 0.00 | 0.72 | 0.21 | 96 | 1011.3 |
| 20260507155525 | 62 | 265 | 0.0 | 2.0 | 0.00 | 0.72 | 0.21 | 96 | 1011.3 |
| 20260507155036 | 62 | 144 | 0.0 | 1.0 | 0.00 | 0.72 | 0.21 | 97 | 1011.3 |
| 20260507154520 | 62 | 144 | 0.0 | 1.0 | 0.00 | 0.72 | 0.21 | 97 | 1011.3 |
| 20260507154026 | 62 | 144 | 0.0 | 1.0 | 0.00 | 0.72 | 0.21 | 97 | 1011.0 |
| 20260507153517 | 62 | 144 | 0.0 | 2.0 | 0.00 | 0.72 | 0.21 | 97 | 1011.0 |
| 20260507153035 | 62 | 144 | 0.0 | 2.0 | 0.00 | 0.72 | 0.21 | 97 | 1011.0 |
| 20260507152524 | 63 | 273 | 0.0 | 0.0 | 0.00 | 0.72 | 0.21 | 97 | 1010.9 |
| 20260507152101 | 63 | 273 | 0.0 | 1.0 | 0.00 | 0.72 | 0.21 | 97 | 1010.9 |
| 20260507151528 | 63 | 273 | 0.0 | 3.0 | 0.00 | 0.72 | 0.21 | 97 | 1010.9 |
| 20260507151026 | 63 | 273 | 0.0 | 3.0 | 0.00 | 0.72 | 0.21 | 97 | 1010.8 |
| 20260507150534 | 63 | 171 | 0.0 | 0.0 | 0.00 | 0.72 | 0.21 | 98 | 1010.8 |
| 20260507150035 | 63 | 171 | 0.0 | 0.0 | 0.00 | 0.72 | 0.21 | 98 | 1010.8 |
| 20260507145525 | 62 | 172 | 0.0 | 0.0 | 0.00 | 0.72 | 0.21 | 98 | 1010.8 |
| 20260507145026 | 63 | 172 | 0.0 | 0.0 | 0.00 | 0.72 | 0.21 | 98 | 1010.8 |
| 20260507144534 | 63 | 171 | 0.0 | 1.0 | 0.00 | 0.72 | 0.21 | 98 | 1010.8 |
| 20260507144024 | 62 | 171 | 0.0 | 0.0 | 0.00 | 0.72 | 0.21 | 98 | 1010.7 |
| 20260507143545 | 62 | 172 | 0.0 | 0.0 | 0.00 | 0.72 | 0.21 | 98 | 1010.7 |
| 20260507143046 | 62 | 171 | 0.0 | 0.0 | 0.00 | 0.72 | 0.21 | 98 | 1010.7 |
| 20260507142532 | 62 | 171 | 0.0 | 0.0 | 0.00 | 0.72 | 0.21 | 98 | 1010.8 |
| 20260507142020 | 61 | 171 | 0.0 | 1.0 | 0.00 | 0.72 | 0.21 | 97 | 1010.8 |
| 20260507141534 | 61 | 171 | 0.0 | 2.0 | 0.00 | 0.72 | 0.21 | 98 | 1010.8 |
| 20260507141019 | 62 | 172 | 1.0 | 2.0 | 0.01 | 0.72 | 0.21 | 98 | 1010.7 |
| 20260507140537 | 61 | 171 | 0.0 | 1.0 | 0.01 | 0.72 | 0.21 | 98 | 1010.7 |
| 20260507140016 | 62 | 172 | 0.0 | 1.0 | 0.01 | 0.72 | 0.21 | 98 | 1010.7 |
| 20260507135559 | 61 | 171 | 0.0 | 0.0 | 0.01 | 0.72 | 0.21 | 98 | 1010.3 |
| 20260507135026 | 61 | 171 | 0.0 | 0.0 | 0.01 | 0.72 | 0.21 | 98 | 1010.3 |
| 20260507134520 | 61 | 171 | 0.0 | 0.0 | 0.01 | 0.72 | 0.21 | 98 | 1010.3 |
| 20260507134028 | 61 | 171 | 0.0 | 0.0 | 0.01 | 0.72 | 0.21 | 98 | 1010.4 |
| 20260507133034 | 61 | 171 | 0.0 | 0.0 | 0.01 | 0.72 | 0.21 | 98 | 1010.4 |
| 20260507132521 | 61 | 171 | 0.0 | 0.0 | 0.01 | 0.72 | 0.21 | 98 | 1010.1 |
| 20260507132041 | 61 | 171 | 0.0 | 0.0 | 0.01 | 0.72 | 0.21 | 97 | 1010.1 |
| 20260507131519 | 61 | 171 | 0.0 | 0.0 | 0.01 | 0.72 | 0.21 | 98 | 1010.1 |
| 20260507131059 | 61 | 172 | 0.0 | 0.0 | 0.00 | 0.71 | 0.20 | 98 | 1009.7 |
| 20260507130536 | 61 | 171 | 0.0 | 0.0 | 0.00 | 0.71 | 0.20 | 98 | 1009.7 |
| 20260507130025 | 61 | 172 | 0.0 | 0.0 | 0.00 | 0.71 | 0.20 | 97 | 1009.7 |
| 20260507125541 | 61 | 171 | 0.0 | 0.0 | 0.00 | 0.71 | 0.20 | 97 | 1009.7 |
| 20260507125049 | 61 | 172 | 0.0 | 0.0 | 0.00 | 0.71 | 0.20 | 97 | 1009.7 |
| 20260507124514 | 61 | 172 | 0.0 | 0.0 | 0.00 | 0.71 | 0.20 | 97 | 1009.7 |
| 20260507124033 | 61 | 171 | 0.0 | 0.0 | 0.00 | 0.71 | 0.20 | 97 | 1009.7 |